Regional Weather Roundup
Issued by NWS

Home | Current Version | Previous Version | Graphics & Text | Print | Product List | Glossary On
Versions: 1 2 3 4 5 6 7 8 9 10 11 12 13 14 15 16 17 18 19 20 21 22 23 24 25 26 27 28 29 30 31 32 33 34 35 36 37 38 39 40 41 42 43 44 45 46 47 48 49 50
000
ASUS43 KOAX 040810
RWRNE

WEATHER ROUNDUP FOR NEBRASKA
NATIONAL WEATHER SERVICE OMAHA NE
300 AM CDT TUE AUG 04 2015

NOTES: SATELLITE DATA IS BEING USED TO AUGMENT CLOUD COVER ABOVE
       12000 FEET.
       "FAIR" INDICATES FEW OR NO CLOUDS BELOW 12,000 FEET WITH NO
       SIGNIFICANT WEATHER AND/OR OBSTRUCTIONS TO VISIBILITY.

  * THESE STATIONS DO NOT REPORT WEATHER SUCH AS RAIN...SNOW OR FOG.

NEZ001>004-019>022-054>056-040900-
NEBRASKA PANHANDLE

CITY           SKY/WX    TMP DP  RH WIND       PRES   REMARKS
SCOTTSBLUFF    PTCLDY    65  55  70 E3        29.97F
ALLIANCE       MOCLDY    64  54  69 CALM      29.98R
CHADRON        MOCLDY    62  58  86 W6        29.92S
KIMBALL        MOCLDY    60  50  70 SW5       30.01F
SIDNEY         MOCLDY    58  49  72 SW5       30.02F
$$

NEZ057>060-069>072-079>082-040900-
SOUTHWEST NEBRASKA

CITY           SKY/WX    TMP DP  RH WIND       PRES   REMARKS
NORTH PLATTE   CLEAR     66  64  93 E8        29.96F
IMPERIAL       PTCLDY    64  57  78 VRB3      29.98F
LEXINGTON      CLOUDY    70  67  91 E9        29.95F
MCCOOK         MOCLDY    70  69  97 NE6       29.94F FOG
OGALLALA       MOCLDY    69  68  97 E3        29.97F
$$

NEZ005>010-023>029-035>040-094-040900-
NORTH CENTRAL NEBRASKA

CITY           SKY/WX    TMP DP  RH WIND       PRES   REMARKS
AINSWORTH      CLOUDY    69  63  80 S10       29.95F
BROKEN BOW     CLOUDY    68  63  84 SE6       29.95
O`NEILL        TSTM      63  60  90 S17G23    30.02R
ORD            CLOUDY    68  63  84 SE7       29.93F
THEDFORD       PTCLDY    66  64  92 S5        29.97F
$$

NEZ041-046>049-061>064-073>077-083>087-040900-
SOUTH CENTRAL NEBRASKA

CITY           SKY/WX    TMP DP  RH WIND       PRES   REMARKS
GRAND ISLAND   MOCLDY    67  64  90 SE6       29.94F
AURORA         CLOUDY    68  65  92 SE9       29.93F
HASTINGS       MOCLDY    70  67  90 E10       29.94F
HEBRON         PTCLDY    70  67  90 E5        29.93F
HOLDREGE       MOCLDY    67  65  94 SE7       29.94F
KEARNEY *      CLOUDY    68  64  88 E7        29.94F
YORK           CLOUDY    68  64  88 SE9       29.94F
$$

NEZ011>018-030>034-042>045-040900-
NORTHEAST NEBRASKA

CITY           SKY/WX    TMP DP  RH WIND       PRES   REMARKS
NORFOLK        CLOUDY    67  64  90 SW7       29.96F
ALBION         MOCLDY    67  63  87 E6        29.95F
BLAIR          MOCLDY    66  61  83 E3        29.96F
COLUMBUS *     MOCLDY    70  59  68 SE9       29.94F
FREMONT        MOCLDY    71  62  75 E6        29.95F
TEKAMAH        CLOUDY    67  66  97 CALM      29.94F
WAYNE          CLEAR     68  64  87 SE5       29.95F
$$

NEZ050>053-065>068-078-088>093-040900-
SOUTHEAST NEBRASKA

CITY           SKY/WX    TMP DP  RH WIND       PRES   REMARKS
LINCOLN        CLOUDY    71  65  81 E9        29.95F
OMAHA EPPLEY   MOCLDY    72  62  71 E8        29.95F
BEATRICE       PTCLDY    70  68  93 E3        29.94F
FALLS CITY     PTCLDY    70  69  97 NE3       29.93S
NEBRASKA CITY  CLOUDY    67  65  95 E7        29.98S
PLATTSMOUTH    MOCLDY    68  64  86 SE6       29.97S
$$

NEZ044-045-051>053-067-040900-
OMAHA AREA

CITY           SKY/WX    TMP DP  RH WIND       PRES   REMARKS
OMAHA EPPLEY   MOCLDY    72  62  71 E8        29.95F
BLAIR          MOCLDY    66  61  83 E3        29.96F
FREMONT        MOCLDY    71  62  75 E6        29.95F
MILLARD        MOCLDY    72  63  74 SE5       29.95F
OFFUTT AFB     PTCLDY    68  63  83 E6        29.95F
PLATTSMOUTH    MOCLDY    68  64  86 SE6       29.97S
WAHOO          PTSUNNY   68  64  88 SE7       29.94F
$$



USA.gov is the U.S. government's official web portal to all federal, state and local government web resources and services.